Year,Month,Day,Hour,Minute,Value (Times are PST for temperature in C)
2014,07,02,00,06,19.70
2014,07,02,00,07,19.80
2014,07,02,00,08,19.80
2014,07,02,00,09,19.90
2014,07,02,00,10,19.90
2014,07,02,00,11,19.90
2014,07,02,00,12,19.90
2014,07,02,00,13,19.90
2014,07,02,00,14,19.90
2014,07,02,00,15,19.90
2014,07,02,00,16,19.90
2014,07,02,00,17,19.90
2014,07,02,00,18,19.90
2014,07,02,00,19,19.90
2014,07,02,00,20,19.90
2014,07,02,00,21,20.00
2014,07,02,00,22,20.00
2014,07,02,00,23,20.00
2014,07,02,00,24,20.00
2014,07,02,00,25,20.00
2014,07,02,00,26,20.00
2014,07,02,00,27,20.00
2014,07,02,00,28,20.00
2014,07,02,00,29,19.90
2014,07,02,00,30,19.90
2014,07,02,00,31,19.90
2014,07,02,00,32,19.90
2014,07,02,00,33,19.90
2014,07,02,00,34,19.90
2014,07,02,00,35,19.90
2014,07,02,00,36,19.90
2014,07,02,00,37,19.90
2014,07,02,00,38,19.80
2014,07,02,00,39,19.80
2014,07,02,00,40,19.80
2014,07,02,00,41,19.80
2014,07,02,00,42,19.80
2014,07,02,00,43,19.80
2014,07,02,00,44,19.70
2014,07,02,00,45,19.70
2014,07,02,00,46,19.70
2014,07,02,00,47,19.70
2014,07,02,00,48,19.70
2014,07,02,00,49,19.60
2014,07,02,00,50,19.60
2014,07,02,00,51,19.60
2014,07,02,00,52,19.50
2014,07,02,00,53,19.50
2014,07,02,00,54,19.50
2014,07,02,00,55,19.50
2014,07,02,00,56,19.50
2014,07,02,00,57,19.40
2014,07,02,00,58,19.40
2014,07,02,00,59,19.40
2014,07,02,01,00,19.40
2014,07,02,01,01,19.40
2014,07,02,01,02,19.40
2014,07,02,01,03,19.40
2014,07,02,01,04,19.40
2014,07,02,01,05,19.40
2014,07,02,01,06,19.40
2014,07,02,01,07,19.40
2014,07,02,01,08,19.30
2014,07,02,01,09,19.30
2014,07,02,01,10,19.30
2014,07,02,01,11,19.30
2014,07,02,01,12,19.30
2014,07,02,01,13,19.30
2014,07,02,01,14,19.30
2014,07,02,01,15,19.30
2014,07,02,01,16,19.30
2014,07,02,01,17,19.30
2014,07,02,01,18,19.30
2014,07,02,01,19,19.30
2014,07,02,01,20,19.30
2014,07,02,01,21,19.30
2014,07,02,01,22,19.30
2014,07,02,01,23,19.20
2014,07,02,01,24,19.20
2014,07,02,01,25,19.20
2014,07,02,01,26,19.20
2014,07,02,01,27,19.20
2014,07,02,01,28,19.20
2014,07,02,01,29,19.20
2014,07,02,01,30,19.20
2014,07,02,01,31,19.10
2014,07,02,01,32,19.10
2014,07,02,01,33,19.10
2014,07,02,01,34,19.10
2014,07,02,01,35,19.10
2014,07,02,01,36,19.00
2014,07,02,01,37,19.00
2014,07,02,01,38,19.00
2014,07,02,01,39,19.00
2014,07,02,01,40,19.00
2014,07,02,01,41,19.00
2014,07,02,01,42,19.00
2014,07,02,01,43,19.00
2014,07,02,01,44,19.00
2014,07,02,01,45,19.00
2014,07,02,01,46,19.00
2014,07,02,01,47,19.00
2014,07,02,01,48,19.00
2014,07,02,01,49,19.00
2014,07,02,01,50,18.90
2014,07,02,01,51,18.90
2014,07,02,01,52,18.90
2014,07,02,01,53,18.90
2014,07,02,01,54,18.90
2014,07,02,01,55,18.90
2014,07,02,01,56,18.90
2014,07,02,01,57,18.90
2014,07,02,01,58,18.90
2014,07,02,01,59,18.90
2014,07,02,02,00,18.90
2014,07,02,02,01,18.90
2014,07,02,02,02,18.90
2014,07,02,02,03,18.90
2014,07,02,02,04,18.90
2014,07,02,02,05,18.90
2014,07,02,02,06,18.90
2014,07,02,02,07,18.90
2014,07,02,02,08,18.90
2014,07,02,02,09,18.90
2014,07,02,02,10,18.90
2014,07,02,02,11,18.90
2014,07,02,02,12,18.90
2014,07,02,02,13,18.90
2014,07,02,02,14,18.90
2014,07,02,02,15,19.00
2014,07,02,02,16,19.00
2014,07,02,02,17,19.00
2014,07,02,02,18,19.00
2014,07,02,02,19,19.00
2014,07,02,02,20,19.00
2014,07,02,02,21,19.00
2014,07,02,02,22,19.00
2014,07,02,02,23,19.00
2014,07,02,02,24,19.00
2014,07,02,02,25,19.10
2014,07,02,02,26,19.10
2014,07,02,02,27,19.10
2014,07,02,02,28,19.10
2014,07,02,02,29,19.10
2014,07,02,02,30,19.00
2014,07,02,02,31,19.00
2014,07,02,02,32,19.10
2014,07,02,02,33,19.10
2014,07,02,02,34,19.00
2014,07,02,02,35,19.10
2014,07,02,02,36,19.00
2014,07,02,02,37,19.10
2014,07,02,02,38,19.10
2014,07,02,02,39,19.10
2014,07,02,02,40,19.10
2014,07,02,02,41,19.10
2014,07,02,02,42,19.10
2014,07,02,02,43,19.10
2014,07,02,02,44,19.10
2014,07,02,02,45,19.10
2014,07,02,02,46,19.10
2014,07,02,02,47,19.10
2014,07,02,02,48,19.10
2014,07,02,02,49,19.10
2014,07,02,02,50,19.00
2014,07,02,02,51,19.00
2014,07,02,02,52,19.00
2014,07,02,02,53,19.00
2014,07,02,02,54,19.00
2014,07,02,02,55,18.90
2014,07,02,02,56,18.90
2014,07,02,02,57,18.90
2014,07,02,02,58,18.90
2014,07,02,02,59,18.90
2014,07,02,03,00,18.90
2014,07,02,03,01,18.90
2014,07,02,03,02,18.90
2014,07,02,03,03,18.90
2014,07,02,03,04,18.80
2014,07,02,03,05,18.80
2014,07,02,03,06,18.80
2014,07,02,03,07,18.80
2014,07,02,03,08,18.80
2014,07,02,03,09,18.80
2014,07,02,03,10,18.80
2014,07,02,03,11,18.80
2014,07,02,03,12,18.70
2014,07,02,03,13,18.70
2014,07,02,03,14,18.70
2014,07,02,03,15,18.70
2014,07,02,03,16,18.70
2014,07,02,03,17,18.70
2014,07,02,03,18,18.70
2014,07,02,03,19,18.70
2014,07,02,03,20,18.70
2014,07,02,03,21,18.70
2014,07,02,03,22,18.70
2014,07,02,03,23,18.70
2014,07,02,03,24,18.70
2014,07,02,03,25,18.70
2014,07,02,03,26,18.70
2014,07,02,03,27,18.70
2014,07,02,03,28,18.70
2014,07,02,03,29,18.70
2014,07,02,03,30,18.60
2014,07,02,03,31,18.60
2014,07,02,03,32,18.60
2014,07,02,03,33,18.60
2014,07,02,03,34,18.60
2014,07,02,03,35,18.60
2014,07,02,03,36,18.60
2014,07,02,03,37,18.60
2014,07,02,03,38,18.60
2014,07,02,03,39,18.60
2014,07,02,03,40,18.60
2014,07,02,03,41,18.60
2014,07,02,03,42,18.60
2014,07,02,03,43,18.60
2014,07,02,03,44,18.60
2014,07,02,03,45,18.60
2014,07,02,03,46,18.60
2014,07,02,03,47,18.60
2014,07,02,03,48,18.60
2014,07,02,03,49,18.60
2014,07,02,03,50,18.60
2014,07,02,03,51,18.60
2014,07,02,03,52,18.60
2014,07,02,03,53,18.60
2014,07,02,03,54,18.70
2014,07,02,03,55,18.70
2014,07,02,03,56,18.60
2014,07,02,03,57,18.60
2014,07,02,03,58,18.60
2014,07,02,03,59,18.60
2014,07,02,04,00,18.60
2014,07,02,04,01,18.60
2014,07,02,04,02,18.60
2014,07,02,04,03,18.60
2014,07,02,04,04,18.60
2014,07,02,04,05,18.60
2014,07,02,04,06,18.60
2014,07,02,04,07,18.60
2014,07,02,04,08,18.60
2014,07,02,04,09,18.60
2014,07,02,04,10,18.60
2014,07,02,04,11,18.60
2014,07,02,04,12,18.60
2014,07,02,04,13,18.60
2014,07,02,04,14,18.60
2014,07,02,04,15,18.60
2014,07,02,04,16,18.60
2014,07,02,04,17,18.60
2014,07,02,04,18,18.60
2014,07,02,04,19,18.60
2014,07,02,04,20,18.60
2014,07,02,04,21,18.60
2014,07,02,04,22,18.60
2014,07,02,04,23,18.60
2014,07,02,04,24,18.60
2014,07,02,04,25,18.50
2014,07,02,04,26,18.50
2014,07,02,04,27,18.50
2014,07,02,04,28,18.50
2014,07,02,04,29,18.50
2014,07,02,04,30,18.50
2014,07,02,04,31,18.50
2014,07,02,04,32,18.50
2014,07,02,04,33,18.40
2014,07,02,04,34,18.40
2014,07,02,04,35,18.40
2014,07,02,04,36,18.40
2014,07,02,04,37,18.30
2014,07,02,04,38,18.30
2014,07,02,04,39,18.30
2014,07,02,04,40,18.30
2014,07,02,04,41,18.30
2014,07,02,04,42,18.30
2014,07,02,04,43,18.20
2014,07,02,04,44,18.20
2014,07,02,04,45,18.20
2014,07,02,04,46,18.20
2014,07,02,04,47,18.10
2014,07,02,04,48,18.10
2014,07,02,04,49,18.10
2014,07,02,04,50,18.10
2014,07,02,04,51,18.00
2014,07,02,04,52,18.00
2014,07,02,04,53,18.00
2014,07,02,04,54,17.90
2014,07,02,04,55,17.90
2014,07,02,04,56,17.90
2014,07,02,04,57,17.90
2014,07,02,04,58,17.90
2014,07,02,04,59,17.90
2014,07,02,05,00,17.90
2014,07,02,05,01,17.90
2014,07,02,05,02,17.90
2014,07,02,05,03,17.90
2014,07,02,05,04,17.90
2014,07,02,05,05,17.90
2014,07,02,05,06,17.90
2014,07,02,05,07,17.90
2014,07,02,05,08,17.90
2014,07,02,05,09,17.90
2014,07,02,05,10,17.90
2014,07,02,05,11,18.00
2014,07,02,05,12,18.00
2014,07,02,05,13,18.10
2014,07,02,05,14,18.10
2014,07,02,05,15,18.10
2014,07,02,05,16,18.20
2014,07,02,05,17,18.20
2014,07,02,05,18,18.20
2014,07,02,05,19,18.20
2014,07,02,05,20,18.20
2014,07,02,05,21,18.20
2014,07,02,05,22,18.20
2014,07,02,05,23,18.30
2014,07,02,05,24,18.30
2014,07,02,05,25,18.30
2014,07,02,05,26,18.30
2014,07,02,05,27,18.30
2014,07,02,05,28,18.30
2014,07,02,05,29,18.40
2014,07,02,05,30,18.40
2014,07,02,05,31,18.40
2014,07,02,05,32,18.40
2014,07,02,05,33,18.40
2014,07,02,05,34,18.40
2014,07,02,05,35,18.40
2014,07,02,05,36,18.40
2014,07,02,05,37,18.40
2014,07,02,05,38,18.40
2014,07,02,05,39,18.40
2014,07,02,05,40,18.40
2014,07,02,05,41,18.40
2014,07,02,05,42,18.40
2014,07,02,05,43,18.50
2014,07,02,05,44,18.50
2014,07,02,05,45,18.50
2014,07,02,05,46,18.50
2014,07,02,05,47,18.40
2014,07,02,05,48,18.40
2014,07,02,05,49,18.40
2014,07,02,05,50,18.40
2014,07,02,05,51,18.40
2014,07,02,05,52,18.40
2014,07,02,05,53,18.40
2014,07,02,05,54,18.40
2014,07,02,05,55,18.40
2014,07,02,05,56,18.30
2014,07,02,05,57,18.30
2014,07,02,05,58,18.30
2014,07,02,05,59,18.30
2014,07,02,06,00,18.30
2014,07,02,06,01,18.30
2014,07,02,06,02,18.30
2014,07,02,06,03,18.30
2014,07,02,06,04,18.30
2014,07,02,06,05,18.30
2014,07,02,06,06,18.30
2014,07,02,06,07,18.30
2014,07,02,06,08,18.30
2014,07,02,06,09,18.30
2014,07,02,06,10,18.30
2014,07,02,06,11,18.30
2014,07,02,06,12,18.30
2014,07,02,06,13,18.30
2014,07,02,06,14,18.30
2014,07,02,06,15,18.30
2014,07,02,06,16,18.40
2014,07,02,06,17,18.40
2014,07,02,06,18,18.40
2014,07,02,06,19,18.40
2014,07,02,06,20,18.40
2014,07,02,06,21,18.40
2014,07,02,06,22,18.40
2014,07,02,06,23,18.40
2014,07,02,06,24,18.40
2014,07,02,06,25,18.40
2014,07,02,06,26,18.40
2014,07,02,06,27,18.40
2014,07,02,06,28,18.40
2014,07,02,06,29,18.40
2014,07,02,06,30,18.40
2014,07,02,06,31,18.40
2014,07,02,06,32,18.40
2014,07,02,06,33,18.40
2014,07,02,06,34,18.40
2014,07,02,06,35,18.40
2014,07,02,06,36,18.40
2014,07,02,06,37,18.40
2014,07,02,06,38,18.40
2014,07,02,06,39,18.40
2014,07,02,06,40,18.40
2014,07,02,06,41,18.40
2014,07,02,06,42,18.40
2014,07,02,06,43,18.40
2014,07,02,06,44,18.40
2014,07,02,06,45,18.40
2014,07,02,06,46,18.40
2014,07,02,06,47,18.50
2014,07,02,06,48,18.40
2014,07,02,06,49,18.50
2014,07,02,06,50,18.50
2014,07,02,06,51,18.50
2014,07,02,06,52,18.60
2014,07,02,06,53,18.60
2014,07,02,06,54,18.60
2014,07,02,06,55,18.60
2014,07,02,06,56,18.60
2014,07,02,06,57,18.60
2014,07,02,06,58,18.60
2014,07,02,06,59,18.60
2014,07,02,07,00,18.70
2014,07,02,07,01,18.70
2014,07,02,07,02,18.70
2014,07,02,07,03,18.70
2014,07,02,07,04,18.70
2014,07,02,07,05,18.70
2014,07,02,07,06,18.70
2014,07,02,07,07,18.70
2014,07,02,07,08,18.70
2014,07,02,07,09,18.70
2014,07,02,07,10,18.70
2014,07,02,07,11,18.80
2014,07,02,07,12,18.80
2014,07,02,07,13,18.80
2014,07,02,07,14,18.80
2014,07,02,07,15,18.80
2014,07,02,07,16,18.80
2014,07,02,07,17,18.80
2014,07,02,07,18,18.90
2014,07,02,07,19,18.90
2014,07,02,07,20,18.90
2014,07,02,07,21,19.00
2014,07,02,07,22,19.10
2014,07,02,07,23,19.10
2014,07,02,07,24,19.10
2014,07,02,07,25,19.20
2014,07,02,07,26,19.20
2014,07,02,07,27,19.20
2014,07,02,07,28,19.20
2014,07,02,07,29,19.20
2014,07,02,07,30,19.20
2014,07,02,07,31,19.20
2014,07,02,07,32,19.20
2014,07,02,07,33,19.20
2014,07,02,07,34,19.20
2014,07,02,07,35,19.20
2014,07,02,07,36,19.20
2014,07,02,07,37,19.30
2014,07,02,07,38,19.30
2014,07,02,07,39,19.30
2014,07,02,07,40,19.30
2014,07,02,07,41,19.30
2014,07,02,07,42,19.30
2014,07,02,07,43,19.30
2014,07,02,07,44,19.30
2014,07,02,07,45,19.30
2014,07,02,07,46,19.30
2014,07,02,07,47,19.30
2014,07,02,07,48,19.30
2014,07,02,07,49,19.30
2014,07,02,07,50,19.30
2014,07,02,07,51,19.40
2014,07,02,07,52,19.40
2014,07,02,07,53,19.50
2014,07,02,07,54,19.50
2014,07,02,07,55,19.60
2014,07,02,07,56,19.60
2014,07,02,07,57,19.60
2014,07,02,07,58,19.70
2014,07,02,07,59,19.80
2014,07,02,08,00,19.90
2014,07,02,08,01,19.90
2014,07,02,08,02,20.00
2014,07,02,08,03,20.10
2014,07,02,08,04,20.20
2014,07,02,08,05,20.30
2014,07,02,08,06,20.40
2014,07,02,08,07,20.50
2014,07,02,08,08,20.60
2014,07,02,08,09,20.70
2014,07,02,08,10,20.70
2014,07,02,08,11,20.80
2014,07,02,08,12,20.80
2014,07,02,08,13,20.90
2014,07,02,08,14,21.00
2014,07,02,08,15,21.00
2014,07,02,08,16,21.10
2014,07,02,08,17,21.20
2014,07,02,08,18,21.20
2014,07,02,08,19,21.20
2014,07,02,08,20,21.30
2014,07,02,08,21,21.40
2014,07,02,08,22,21.40
2014,07,02,08,23,21.50
2014,07,02,08,24,21.60
2014,07,02,08,25,21.70
2014,07,02,08,26,21.80
2014,07,02,08,27,21.90
2014,07,02,08,28,21.90
2014,07,02,08,29,21.90
2014,07,02,08,30,22.00
2014,07,02,08,31,22.00
2014,07,02,08,32,22.00
2014,07,02,08,33,22.00
2014,07,02,08,34,21.90
2014,07,02,08,35,21.90
2014,07,02,08,36,21.80
2014,07,02,08,37,21.80
2014,07,02,08,38,21.80
2014,07,02,08,39,21.70
2014,07,02,08,40,21.70
2014,07,02,08,41,21.70
2014,07,02,08,42,21.70
2014,07,02,08,43,21.70
2014,07,02,08,44,21.60
2014,07,02,09,43,24.10
2014,07,02,09,44,24.10
2014,07,02,09,45,24.20
2014,07,02,09,46,24.30
2014,07,02,09,47,24.40
2014,07,02,09,48,24.50
2014,07,02,09,49,24.60
2014,07,02,09,50,24.70
2014,07,02,09,51,24.80
2014,07,02,09,52,24.90
2014,07,02,09,53,25.00
2014,07,02,09,54,25.10
2014,07,02,09,55,25.20
2014,07,02,09,56,25.30
2014,07,02,09,57,25.40
2014,07,02,09,58,25.50
2014,07,02,09,59,25.60
2014,07,02,10,00,25.70
2014,07,02,10,01,25.70
2014,07,02,10,02,25.70
2014,07,02,10,03,25.70
2014,07,02,10,04,25.70
2014,07,02,10,05,25.70
2014,07,02,10,06,25.70
2014,07,02,10,07,25.60
2014,07,02,10,08,25.60
2014,07,02,10,09,25.60
2014,07,02,10,10,25.50
2014,07,02,10,11,25.40
2014,07,02,10,12,25.30
2014,07,02,10,13,25.20
2014,07,02,10,14,25.20
2014,07,02,10,15,25.10
2014,07,02,10,16,25.10
2014,07,02,10,17,25.10
2014,07,02,10,18,25.10
2014,07,02,10,19,25.00
2014,07,02,10,20,25.00
2014,07,02,10,21,25.00
2014,07,02,10,22,25.00
2014,07,02,10,23,25.10
2014,07,02,10,24,25.10
2014,07,02,10,25,25.10
2014,07,02,10,26,25.20
2014,07,02,10,27,25.20
2014,07,02,10,28,25.20
2014,07,02,10,29,25.30
2014,07,02,10,30,25.30
2014,07,02,10,31,25.40
2014,07,02,10,32,25.40
2014,07,02,10,33,25.50
2014,07,02,10,34,25.60
2014,07,02,10,35,25.60
2014,07,02,10,36,25.70
2014,07,02,10,37,25.80
2014,07,02,10,38,25.90
2014,07,02,10,39,25.90
2014,07,02,10,40,25.90
2014,07,02,10,41,25.80
2014,07,02,10,42,25.80
2014,07,02,10,43,25.80
2014,07,02,10,44,25.80
2014,07,02,10,45,25.80
2014,07,02,10,46,25.80
2014,07,02,10,47,25.80
2014,07,02,10,48,25.80
2014,07,02,10,49,25.80
2014,07,02,10,50,25.80
2014,07,02,10,51,25.80
2014,07,02,10,52,25.80
2014,07,02,10,53,25.80
2014,07,02,10,54,25.80
2014,07,02,10,55,25.80
2014,07,02,10,56,25.80
2014,07,02,10,57,25.80
2014,07,02,10,58,25.80
2014,07,02,10,59,25.80
2014,07,02,11,00,25.90
2014,07,02,11,01,25.90
2014,07,02,11,02,25.90
2014,07,02,11,03,26.00
2014,07,02,11,04,26.00
2014,07,02,11,05,26.10
2014,07,02,11,06,26.10
2014,07,02,11,07,26.20
2014,07,02,11,08,26.20
2014,07,02,11,09,26.20
2014,07,02,11,10,26.30
2014,07,02,11,11,26.40
2014,07,02,11,12,26.40
2014,07,02,11,13,26.40
2014,07,02,11,14,26.50
2014,07,02,11,15,26.50
2014,07,02,11,16,26.60
2014,07,02,11,17,26.60
2014,07,02,11,18,26.60
2014,07,02,11,19,26.60
2014,07,02,11,20,26.60
2014,07,02,11,21,26.60
2014,07,02,11,22,26.60
2014,07,02,11,23,26.60
2014,07,02,11,24,26.50
2014,07,02,11,25,26.50
2014,07,02,11,26,26.50
2014,07,02,11,27,26.50
2014,07,02,11,28,26.40
2014,07,02,11,29,26.40
2014,07,02,11,30,26.40
2014,07,02,11,31,26.40
2014,07,02,11,32,26.40
2014,07,02,11,33,26.30
2014,07,02,11,34,26.30
2014,07,02,11,35,26.30
2014,07,02,11,36,26.30
2014,07,02,11,37,26.30
2014,07,02,11,38,26.30
2014,07,02,11,39,26.40
2014,07,02,11,40,26.50
2014,07,02,11,41,26.60
2014,07,02,11,42,26.60
2014,07,02,11,43,26.60
2014,07,02,11,44,26.60
2014,07,02,11,45,26.50
2014,07,02,11,46,26.60
2014,07,02,11,47,26.60
2014,07,02,11,48,26.70
2014,07,02,11,49,26.70
2014,07,02,11,50,26.70
2014,07,02,11,51,26.80
2014,07,02,11,52,26.80
2014,07,02,11,53,26.80
2014,07,02,11,54,26.90
2014,07,02,11,55,26.90
2014,07,02,11,56,27.00
2014,07,02,11,57,27.00
2014,07,02,11,58,27.10
2014,07,02,11,59,27.00
2014,07,02,12,00,27.00
2014,07,02,12,01,26.90
2014,07,02,12,02,26.90
2014,07,02,12,03,26.80
2014,07,02,12,04,26.80
2014,07,02,12,05,26.80
2014,07,02,12,06,26.80
2014,07,02,12,07,26.80
2014,07,02,12,08,26.80
2014,07,02,12,09,26.80
2014,07,02,12,10,26.80
2014,07,02,12,11,26.90
2014,07,02,12,12,27.00
2014,07,02,12,13,27.10
2014,07,02,12,14,27.10
2014,07,02,12,15,27.10
2014,07,02,12,16,27.10
2014,07,02,12,17,27.10
2014,07,02,12,18,27.10
2014,07,02,12,19,27.00
2014,07,02,12,20,26.90
2014,07,02,12,21,26.90
2014,07,02,12,22,26.90
2014,07,02,12,23,26.90
2014,07,02,12,24,26.90
2014,07,02,12,25,26.90
2014,07,02,12,26,26.90
2014,07,02,12,27,26.90
2014,07,02,12,28,26.90
2014,07,02,12,29,26.80
2014,07,02,12,30,26.90
2014,07,02,12,31,26.90
2014,07,02,12,32,26.90
2014,07,02,12,33,26.90
2014,07,02,12,34,26.80
2014,07,02,12,35,26.80
2014,07,02,12,36,26.80
2014,07,02,12,37,26.90
2014,07,02,12,38,26.90
2014,07,02,12,39,27.00
2014,07,02,12,40,27.10
2014,07,02,12,41,27.10
2014,07,02,12,42,27.20
2014,07,02,12,43,27.20
2014,07,02,12,44,27.20
2014,07,02,12,45,27.10
2014,07,02,12,46,27.10
2014,07,02,12,47,27.10
2014,07,02,12,48,27.00
2014,07,02,12,49,26.90
2014,07,02,12,50,26.90
2014,07,02,12,51,26.90
2014,07,02,12,52,26.80
2014,07,02,12,53,26.90
2014,07,02,12,54,26.90
2014,07,02,12,55,26.90
2014,07,02,12,56,27.00
2014,07,02,12,57,27.00
2014,07,02,12,58,27.00
2014,07,02,12,59,27.00
2014,07,02,13,00,27.00
2014,07,02,13,01,27.00
2014,07,02,13,02,26.90
2014,07,02,13,03,26.70
2014,07,02,13,04,26.50
2014,07,02,13,05,26.40
2014,07,02,13,06,26.40
2014,07,02,13,07,26.40
2014,07,02,13,08,26.40
2014,07,02,13,09,26.40
2014,07,02,13,10,26.50
2014,07,02,13,11,26.50
2014,07,02,13,12,26.50
2014,07,02,13,13,26.60
2014,07,02,13,14,26.60
2014,07,02,13,15,26.70
2014,07,02,13,16,26.80
2014,07,02,13,17,26.80
2014,07,02,13,18,26.80
2014,07,02,13,19,26.90
2014,07,02,13,20,26.90
2014,07,02,13,21,27.00
2014,07,02,13,22,27.10
2014,07,02,13,23,27.20
2014,07,02,13,24,27.30
2014,07,02,13,25,27.30
2014,07,02,13,26,27.30
2014,07,02,13,27,27.20
2014,07,02,13,28,27.10
2014,07,02,13,29,26.90
2014,07,02,13,30,26.80
2014,07,02,13,31,26.70
2014,07,02,13,32,26.70
2014,07,02,13,33,26.70
2014,07,02,13,34,26.80
2014,07,02,13,35,26.80
2014,07,02,13,36,26.70
2014,07,02,13,37,26.70
2014,07,02,13,38,26.70
2014,07,02,13,39,26.80
2014,07,02,13,40,26.90
2014,07,02,13,41,27.00
2014,07,02,13,42,27.10
2014,07,02,13,43,27.10
2014,07,02,13,44,27.10
2014,07,02,13,45,27.10
2014,07,02,13,46,27.20
2014,07,02,13,47,27.30
2014,07,02,13,48,27.30
2014,07,02,13,49,27.40
2014,07,02,13,50,27.50
2014,07,02,13,51,27.60
2014,07,02,13,52,27.60
2014,07,02,13,53,27.60
2014,07,02,13,54,27.60
2014,07,02,13,55,27.60
2014,07,02,13,56,27.50
2014,07,02,13,57,27.40
2014,07,02,13,58,27.30
2014,07,02,13,59,27.10
2014,07,02,14,00,27.00
2014,07,02,14,01,26.90
2014,07,02,14,02,26.80
2014,07,02,14,03,26.80
2014,07,02,14,04,26.70
2014,07,02,14,05,26.70
2014,07,02,14,06,26.60
2014,07,02,14,07,26.50
2014,07,02,14,08,26.60
2014,07,02,14,09,26.60
2014,07,02,14,10,26.60
2014,07,02,14,11,26.50
2014,07,02,14,12,26.50
2014,07,02,14,13,26.50
2014,07,02,14,14,26.60
2014,07,02,14,15,26.80
2014,07,02,14,16,27.00
2014,07,02,14,17,27.10
2014,07,02,14,18,27.10
2014,07,02,14,19,27.10
2014,07,02,14,20,27.10
2014,07,02,14,21,27.10
2014,07,02,14,22,27.10
2014,07,02,14,23,27.10
2014,07,02,14,24,27.00
2014,07,02,14,25,26.90
2014,07,02,14,26,26.90
2014,07,02,14,27,26.90
2014,07,02,14,28,26.90
2014,07,02,14,29,27.00
2014,07,02,14,30,26.90
2014,07,02,14,31,26.80
2014,07,02,14,32,26.80
2014,07,02,14,33,26.80
2014,07,02,14,34,26.80
2014,07,02,14,35,26.80
2014,07,02,14,36,26.80
2014,07,02,14,37,26.90
2014,07,02,14,38,26.90
2014,07,02,14,39,26.90
2014,07,02,14,40,26.90
2014,07,02,14,41,26.90
2014,07,02,14,42,27.00
2014,07,02,14,43,27.10
2014,07,02,14,44,27.20
2014,07,02,14,45,27.30
2014,07,02,14,46,27.20
2014,07,02,14,47,27.20
2014,07,02,14,48,27.20
2014,07,02,14,49,27.20
2014,07,02,14,50,27.20
2014,07,02,14,51,27.20
2014,07,02,14,52,27.20
2014,07,02,14,53,27.20
2014,07,02,14,54,27.20
2014,07,02,14,55,27.20
2014,07,02,14,56,27.20
2014,07,02,14,57,27.10
2014,07,02,14,58,27.10
2014,07,02,14,59,27.10
2014,07,02,15,00,27.10
2014,07,02,15,01,27.20
2014,07,02,15,02,27.20
2014,07,02,15,03,27.20
2014,07,02,15,04,27.20
2014,07,02,15,05,27.20
2014,07,02,15,06,27.20
2014,07,02,15,07,27.30
2014,07,02,15,08,27.30
2014,07,02,15,09,27.40
2014,07,02,15,10,27.40
2014,07,02,15,11,27.40
2014,07,02,15,12,27.30
2014,07,02,15,13,27.20
2014,07,02,15,14,27.20
2014,07,02,15,15,27.10
2014,07,02,15,16,27.10
2014,07,02,15,17,27.00
2014,07,02,15,18,26.90
2014,07,02,15,19,26.70
2014,07,02,15,20,26.60
2014,07,02,15,21,26.50
2014,07,02,15,22,26.50
2014,07,02,15,23,26.60
2014,07,02,15,24,26.70
2014,07,02,15,25,26.80
2014,07,02,15,26,26.80
2014,07,02,15,27,26.80
2014,07,02,15,28,26.80
2014,07,02,15,29,26.90
2014,07,02,15,30,27.00
2014,07,02,15,31,27.10
2014,07,02,15,32,27.20
2014,07,02,15,33,27.30
2014,07,02,15,34,27.30
2014,07,02,15,35,27.30
2014,07,02,15,36,27.20
2014,07,02,15,37,27.20
2014,07,02,15,38,27.10
2014,07,02,15,39,27.00
2014,07,02,15,40,26.90
2014,07,02,15,41,27.00
2014,07,02,15,42,27.00
2014,07,02,15,43,27.00
2014,07,02,15,44,27.00
2014,07,02,15,45,26.90
2014,07,02,15,46,26.90
2014,07,02,15,47,26.80
2014,07,02,15,48,26.70
2014,07,02,15,49,26.60
2014,07,02,15,50,26.60
2014,07,02,15,51,26.60
2014,07,02,15,52,26.60
2014,07,02,15,53,26.70
2014,07,02,15,54,26.70
2014,07,02,15,55,26.70
2014,07,02,15,56,26.60
2014,07,02,15,57,26.50
2014,07,02,15,58,26.50
2014,07,02,15,59,26.50
2014,07,02,16,00,26.40
2014,07,02,16,01,26.40
2014,07,02,16,02,26.30
2014,07,02,16,03,26.20
2014,07,02,16,04,26.10
2014,07,02,16,05,25.90
2014,07,02,16,06,25.90
2014,07,02,16,07,25.90
2014,07,02,16,08,25.80
2014,07,02,16,09,25.90
2014,07,02,16,10,25.90
2014,07,02,16,11,25.90
2014,07,02,16,12,25.90
2014,07,02,16,13,26.00
2014,07,02,16,14,26.10
2014,07,02,16,15,26.10
2014,07,02,16,16,26.00
2014,07,02,16,17,26.00
2014,07,02,16,18,26.00
2014,07,02,16,19,26.10
2014,07,02,16,20,26.20
2014,07,02,16,21,26.30
2014,07,02,16,22,26.30
2014,07,02,16,23,26.30
2014,07,02,16,24,26.20
2014,07,02,16,25,26.20
2014,07,02,16,26,26.10
2014,07,02,16,27,26.10
2014,07,02,16,28,26.10
2014,07,02,16,29,26.10
2014,07,02,16,30,26.00
2014,07,02,16,31,25.90
2014,07,02,16,32,25.70
2014,07,02,16,33,25.60
2014,07,02,16,34,25.60
2014,07,02,16,35,25.50
2014,07,02,16,36,25.40
2014,07,02,16,37,25.40
2014,07,02,16,38,25.30
2014,07,02,16,39,25.30
2014,07,02,16,40,25.30
2014,07,02,16,41,25.30
2014,07,02,16,42,25.40
2014,07,02,16,43,25.40
2014,07,02,16,44,25.40
2014,07,02,16,45,25.30
2014,07,02,16,46,25.20
2014,07,02,16,47,25.20
2014,07,02,16,48,25.20
2014,07,02,16,49,25.10
2014,07,02,16,50,25.10
2014,07,02,16,51,25.10
2014,07,02,16,52,25.00
2014,07,02,16,53,24.90
2014,07,02,16,54,24.90
2014,07,02,16,55,24.80
2014,07,02,16,56,24.70
2014,07,02,16,57,24.70
2014,07,02,16,58,24.70
2014,07,02,16,59,24.70
2014,07,02,17,00,24.70
2014,07,02,17,01,24.70
2014,07,02,17,02,24.60
2014,07,02,17,03,24.50
2014,07,02,17,04,24.50
2014,07,02,17,05,24.40
2014,07,02,17,06,24.40
2014,07,02,17,07,24.40
2014,07,02,17,08,24.40
2014,07,02,17,09,24.40
2014,07,02,17,10,24.40
2014,07,02,17,11,24.50
2014,07,02,17,12,24.50
2014,07,02,17,13,24.60
2014,07,02,17,14,24.60
2014,07,02,17,15,24.50
2014,07,02,17,16,24.50
2014,07,02,17,17,24.50
2014,07,02,17,18,24.50
2014,07,02,17,19,24.40
2014,07,02,17,20,24.40
2014,07,02,17,21,24.30
2014,07,02,17,22,24.30
2014,07,02,17,23,24.20
2014,07,02,17,24,24.20
2014,07,02,17,25,24.10
2014,07,02,17,26,24.00
2014,07,02,17,27,23.90
2014,07,02,17,28,23.80
2014,07,02,17,29,23.70
2014,07,02,17,30,23.70
2014,07,02,17,31,23.60
2014,07,02,17,32,23.60
2014,07,02,17,33,23.60
2014,07,02,17,34,23.60
2014,07,02,17,35,23.60
2014,07,02,17,36,23.60
2014,07,02,17,37,23.60
2014,07,02,17,38,23.60
2014,07,02,17,39,23.50
2014,07,02,17,40,23.40
2014,07,02,17,41,23.30
2014,07,02,17,42,23.20
2014,07,02,17,43,23.10
2014,07,02,17,44,23.10
2014,07,02,17,45,23.10
2014,07,02,17,46,23.10
2014,07,02,17,47,23.10
2014,07,02,17,48,23.10
2014,07,02,17,49,23.10
2014,07,02,17,50,23.10
2014,07,02,17,51,23.10
2014,07,02,17,52,23.20
2014,07,02,17,53,23.20
2014,07,02,17,54,23.20
2014,07,02,17,55,23.20
2014,07,02,17,56,23.20
2014,07,02,17,57,23.20
2014,07,02,17,58,23.20
2014,07,02,17,59,23.20
2014,07,02,18,00,23.20
2014,07,02,18,01,23.20
2014,07,02,18,02,23.30
2014,07,02,18,03,23.30
2014,07,02,18,04,23.30
2014,07,02,18,05,23.40
2014,07,02,18,06,23.40
2014,07,02,18,07,23.40
2014,07,02,18,08,23.40
2014,07,02,18,09,23.40
2014,07,02,18,10,23.30
2014,07,02,18,11,23.30
2014,07,02,18,12,23.20
2014,07,02,18,13,23.10
2014,07,02,18,14,23.10
2014,07,02,18,15,23.00
2014,07,02,18,16,22.90
2014,07,02,18,17,22.80
2014,07,02,18,18,22.70
2014,07,02,18,19,22.70
2014,07,02,18,20,22.60
2014,07,02,18,21,22.60
2014,07,02,18,22,22.50
2014,07,02,18,23,22.40